TimeAST,TemperatureF,Dew PointF,Humidity,Sea Level PressureIn,VisibilityMPH,Wind Direction,Wind SpeedMPH,Gust SpeedMPH,PrecipitationIn,Events,Conditions,WindDirDegrees,DateUTC
12:00 AM,69.8,42.8,38,29.83,0.9,NNW,16.1,-,N/A,,Unknown,340,2012-03-01 21:00:00
12:30 AM,69.8,41.0,35,29.83,0.9,NNW,17.3,-,N/A,,Unknown,340,2012-03-01 21:30:00
1:00 AM,69.8,44.6,40,29.83,0.9,NNW,19.6,-,N/A,,Low Drifting Widespread Dust,340,2012-03-01 22:00:00
1:30 AM,68.0,46.4,46,29.80,0.9,NNW,18.4,-,N/A,,Low Drifting Widespread Dust,340,2012-03-01 22:30:00
2:00 AM,68.0,46.4,46,29.80,0.9,North,18.4,-,N/A,,Low Drifting Widespread Dust,350,2012-03-01 23:00:00
2:30 AM,68.0,44.6,43,29.80,0.8,North,21.9,-,N/A,,Low Drifting Widespread Dust,350,2012-03-01 23:30:00
3:00 AM,68.0,41.0,37,29.80,0.8,North,17.3,-,N/A,,Low Drifting Widespread Dust,350,2012-03-02 00:00:00
3:30 AM,66.2,41.0,40,29.77,0.8,North,17.3,-,N/A,,Low Drifting Widespread Dust,360,2012-03-02 00:30:00
4:00 AM,66.2,41.0,40,29.80,0.9,North,15.0,-,N/A,,Unknown,360,2012-03-02 01:00:00
4:30 AM,66.2,44.6,46,29.80,1.2,North,12.7,-,N/A,,Unknown,350,2012-03-02 01:30:00
5:00 AM,66.2,46.4,49,29.83,1.2,North,10.4,-,N/A,,Unknown,350,2012-03-02 02:00:00
5:30 AM,66.2,46.4,49,29.83,1.2,North,9.2,-,N/A,,Unknown,360,2012-03-02 02:30:00
6:00 AM,66.2,46.4,49,29.83,1.2,North,6.9,-,N/A,,Unknown,360,2012-03-02 03:00:00
6:30 AM,66.2,48.2,52,29.83,0.8,North,4.6,-,N/A,,Unknown,360,2012-03-02 03:30:00
7:00 AM,66.2,48.2,52,29.86,0.8,Variable,2.3,-,N/A,,Unknown,0,2012-03-02 04:00:00
7:30 AM,68.0,46.4,46,29.86,0.8,Variable,1.2,-,N/A,,Unknown,0,2012-03-02 04:30:00
8:00 AM,68.0,46.4,46,29.89,0.9,Calm,Calm,-,N/A,,Unknown,0,2012-03-02 05:00:00
8:30 AM,69.8,44.6,40,29.89,0.9,Variable,2.3,-,N/A,,Unknown,0,2012-03-02 05:30:00
9:00 AM,71.6,42.8,35,29.89,0.9,Variable,1.2,-,N/A,,Unknown,0,2012-03-02 06:00:00
9:30 AM,71.6,42.8,35,29.89,0.9,South,3.5,-,N/A,,Unknown,190,2012-03-02 06:30:00
10:00 AM,75.2,46.4,36,29.89,0.9,WSW,3.5,-,N/A,,Unknown,250,2012-03-02 07:00:00
10:30 AM,75.2,44.6,34,29.86,0.9,Variable,2.3,-,N/A,,Unknown,0,2012-03-02 07:30:00
11:00 AM,75.2,42.8,31,29.86,0.9,SSE,3.5,-,N/A,,Unknown,150,2012-03-02 08:00:00
11:30 AM,77.0,46.4,34,29.83,0.9,SE,6.9,-,N/A,,Unknown,140,2012-03-02 08:30:00
12:00 PM,77.0,46.4,34,29.83,0.9,East,4.6,-,N/A,,Unknown,100,2012-03-02 09:00:00
12:30 PM,78.8,48.2,34,29.80,0.9,East,6.9,-,N/A,,Unknown,90,2012-03-02 09:30:00
1:00 PM,77.0,48.2,36,29.80,0.9,East,4.6,-,N/A,,Unknown,100,2012-03-02 10:00:00
1:30 PM,77.0,50.0,39,29.77,0.8,East,4.6,-,N/A,,Unknown,80,2012-03-02 10:30:00
2:00 PM,77.0,50.0,39,29.77,0.8,ESE,6.9,-,N/A,,Unknown,110,2012-03-02 11:00:00
2:30 PM,77.0,48.2,36,29.77,0.8,East,5.8,-,N/A,,Unknown,100,2012-03-02 11:30:00
3:00 PM,76,51,30,29.78,1,ESE,4.6,,,,Widespread Dust,110,2012-03-02 12:00:00
3:00 PM,77.0,50.0,39,29.77,0.9,ESE,4.6,-,N/A,,Unknown,110,2012-03-02 12:00:00
3:30 PM,75.2,50.0,41,29.77,0.9,East,5.8,-,N/A,,Unknown,90,2012-03-02 12:30:00
4:00 PM,73.4,50.0,44,29.74,0.9,East,8.1,-,N/A,,Unknown,100,2012-03-02 13:00:00
4:30 PM,73.4,51.8,47,29.77,0.9,East,4.6,-,N/A,,Unknown,100,2012-03-02 13:30:00
5:00 PM,71.6,50.0,46,29.77,0.9,East,5.8,-,N/A,,Unknown,90,2012-03-02 14:00:00
5:30 PM,71.6,53.6,53,29.77,0.9,East,4.6,-,N/A,,Unknown,100,2012-03-02 14:30:00
6:00 PM,69.8,55.4,60,29.77,1.2,ESE,4.6,-,N/A,,Unknown,110,2012-03-02 15:00:00
6:30 PM,69.8,57.2,64,29.77,1.6,East,3.5,-,N/A,,Unknown,90,2012-03-02 15:30:00
7:00 PM,68.0,59.0,73,29.77,1.9,ESE,3.5,-,N/A,,Unknown,120,2012-03-02 16:00:00
7:30 PM,68.0,57.2,68,29.80,1.9,Variable,1.2,-,N/A,,Unknown,0,2012-03-02 16:30:00
8:00 PM,68.0,57.2,68,29.80,1.9,NNE,8.1,-,N/A,,Unknown,20,2012-03-02 17:00:00
9:00 PM,66,60,74,29.81,2,North,10.4,,,,Widespread Dust,10,2012-03-02 18:00:00
9:00 PM,66.2,59.0,78,29.80,1.6,North,10.4,-,N/A,,Unknown,10,2012-03-02 18:00:00
9:30 PM,66.2,60.8,83,29.80,1.6,North,9.2,-,N/A,,Unknown,10,2012-03-02 18:30:00
10:00 PM,66.2,60.8,83,29.80,1.6,North,9.2,-,N/A,,Unknown,10,2012-03-02 19:00:00
10:30 PM,66.2,60.8,83,29.80,1.6,North,6.9,-,N/A,,Unknown,10,2012-03-02 19:30:00
11:00 PM,66.2,60.8,83,29.77,1.6,NE,3.5,-,N/A,,Unknown,50,2012-03-02 20:00:00
11:30 PM,66.2,60.8,83,29.77,1.6,Variable,2.3,-,N/A,,Unknown,0,2012-03-02 20:30:00